Time,TemperatureF,DewpointF,PressureIn,WindDirection,WindDirectionDegrees,WindSpeedMPH,WindSpeedGustMPH,Humidity,HourlyPrecipIn,Conditions,Clouds,dailyrainin,SoftwareType,DateUTC
2013-01-19 00:03:00,0.0,-21.8,30.00,SE,131,0.0,0.0,34,0.00,CLR,CLR,0.00,WeatherDisplay:10.37,2013-01-19 05:03:00,
2013-01-19 00:08:00,0.3,-21.5,30.00,SE,131,0.0,0.0,34,0.00,CLR,CLR,0.00,WeatherDisplay:10.37,2013-01-19 05:08:00,
2013-01-19 00:18:00,0.7,-21.2,30.00,SE,131,0.0,0.0,34,0.00,CLR,CLR,0.00,WeatherDisplay:10.37,2013-01-19 05:18:00,
2013-01-19 00:23:00,1.0,-20.9,30.00,SE,131,0.0,0.0,34,0.00,CLR,CLR,0.00,WeatherDisplay:10.37,2013-01-19 05:23:00,
2013-01-19 00:28:00,1.3,-20.6,30.00,SE,131,0.0,0.0,34,0.00,CLR,CLR,0.00,WeatherDisplay:10.37,2013-01-19 05:28:00,
2013-01-19 00:38:00,1.9,-20.0,29.97,SE,131,0.0,0.0,34,0.00,CLR,CLR,0.00,WeatherDisplay:10.37,2013-01-19 05:38:00,
2013-01-19 00:48:00,2.8,-19.3,29.97,SE,131,0.0,0.0,34,0.00,CLR,CLR,0.00,WeatherDisplay:10.37,2013-01-19 05:48:00,
2013-01-19 00:53:00,3.0,-19.1,29.97,SE,129,0.0,0.0,34,0.00,CLR,CLR,0.00,WeatherDisplay:10.37,2013-01-19 05:53:00,
2013-01-19 00:58:00,3.4,-18.8,29.97,SE,126,0.0,0.0,34,0.00,CLR,CLR,0.00,WeatherDisplay:10.37,2013-01-19 05:58:00,
2013-01-19 01:08:00,3.7,-18.4,29.97,SE,126,0.0,0.0,34,0.00,CLR,CLR,0.00,WeatherDisplay:10.37,2013-01-19 06:08:00,
2013-01-19 01:18:00,4.5,-17.8,29.97,SE,126,0.0,0.0,34,0.00,CLR,CLR,0.00,WeatherDisplay:10.37,2013-01-19 06:18:00,
2013-01-19 01:28:00,5.0,-17.3,29.97,SE,126,0.0,0.0,34,0.00,CLR,CLR,0.00,WeatherDisplay:10.37,2013-01-19 06:28:00,
2013-01-19 01:38:00,5.5,-16.8,29.97,SSE,153,2.0,4.0,34,0.00,CLR,CLR,0.00,WeatherDisplay:10.37,2013-01-19 06:38:00,
2013-01-19 01:48:00,7.0,-15.6,29.97,SSE,166,2.0,4.0,34,0.00,CLR,CLR,0.00,WeatherDisplay:10.37,2013-01-19 06:48:00,
2013-01-19 01:58:00,9.1,-13.6,29.97,SSE,168,0.0,4.0,34,0.00,CLR,CLR,0.00,WeatherDisplay:10.37,2013-01-19 06:58:00,
2013-01-19 02:03:00,9.9,-12.9,29.97,South,170,5.0,6.0,34,0.00,CLR,CLR,0.00,WeatherDisplay:10.37,2013-01-19 07:03:00,
2013-01-19 02:08:00,10.8,-12.1,29.97,SSE,167,3.0,6.0,34,0.00,CLR,CLR,0.00,WeatherDisplay:10.37,2013-01-19 07:08:00,
2013-01-19 02:18:00,12.0,-5.3,29.97,SSE,161,2.0,5.0,45,0.00,CLR,CLR,0.00,WeatherDisplay:10.37,2013-01-19 07:18:00,
2013-01-19 02:23:00,12.5,-4.8,29.97,South,169,0.0,4.0,45,0.00,CLR,CLR,0.00,WeatherDisplay:10.37,2013-01-19 07:23:00,
2013-01-19 02:28:00,12.7,-4.6,29.97,South,169,0.0,4.0,45,0.00,CLR,CLR,0.00,WeatherDisplay:10.37,2013-01-19 07:28:00,
2013-01-19 02:38:00,13.1,-4.3,29.94,SSE,155,1.0,3.0,45,0.00,CLR,CLR,0.00,WeatherDisplay:10.37,2013-01-19 07:38:00,
2013-01-19 02:48:00,13.6,-3.8,29.94,SE,144,1.0,3.0,45,0.00,CLR,CLR,0.00,WeatherDisplay:10.37,2013-01-19 07:48:00,
2013-01-19 02:58:00,14.0,-3.5,29.94,SSE,150,0.0,3.0,45,0.00,CLR,CLR,0.00,WeatherDisplay:10.37,2013-01-19 07:58:00,
2013-01-19 03:03:00,14.0,-3.5,29.91,SE,140,1.0,5.0,45,0.00,CLR,CLR,0.00,WeatherDisplay:10.37,2013-01-19 08:03:00,
2013-01-19 03:08:00,14.1,-3.9,29.91,SE,140,1.0,3.0,44,0.00,CLR,CLR,0.00,WeatherDisplay:10.37,2013-01-19 08:08:00,
2013-01-19 03:18:00,14.2,-3.8,29.91,SSE,161,0.0,0.0,44,0.00,CLR,CLR,0.00,WeatherDisplay:10.37,2013-01-19 08:18:00,
2013-01-19 03:28:00,14.2,-3.8,29.91,SE,145,0.0,0.0,44,0.00,CLR,CLR,0.00,WeatherDisplay:10.37,2013-01-19 08:28:00,
2013-01-19 03:38:00,14.0,-3.9,29.91,ESE,110,0.0,0.0,44,0.00,CLR,CLR,0.00,WeatherDisplay:10.37,2013-01-19 08:38:00,
2013-01-19 03:48:00,13.6,-4.3,29.88,ESE,102,0.0,0.0,44,0.00,CLR,CLR,0.00,WeatherDisplay:10.37,2013-01-19 08:48:00,
2013-01-19 03:58:00,13.6,-4.8,29.88,ESE,102,0.0,0.0,43,0.00,CLR,CLR,0.00,WeatherDisplay:10.37,2013-01-19 08:58:00,
2013-01-19 04:03:00,13.6,-4.8,29.88,East,101,0.0,0.0,43,0.00,CLR,CLR,0.00,WeatherDisplay:10.37,2013-01-19 09:03:00,
2013-01-19 04:08:00,13.6,-4.8,29.88,East,101,0.0,0.0,43,0.00,CLR,CLR,0.00,WeatherDisplay:10.37,2013-01-19 09:08:00,
2013-01-19 04:18:00,13.6,-4.8,29.88,East,95,0.0,3.0,43,0.00,CLR,CLR,0.00,WeatherDisplay:10.37,2013-01-19 09:18:00,
2013-01-19 04:28:00,14.2,-4.3,29.88,ESE,110,0.0,0.0,43,0.00,CLR,CLR,0.00,WeatherDisplay:10.37,2013-01-19 09:28:00,
2013-01-19 04:38:00,14.5,-3.9,29.85,SE,128,0.0,0.0,43,0.00,CLR,CLR,0.00,WeatherDisplay:10.37,2013-01-19 09:38:00,
2013-01-19 04:48:00,14.5,-3.9,29.85,SE,144,0.0,3.0,43,0.00,CLR,CLR,0.00,WeatherDisplay:10.37,2013-01-19 09:48:00,
2013-01-19 04:58:00,14.5,-3.9,29.85,SSE,154,0.0,0.0,43,0.00,CLR,CLR,0.00,WeatherDisplay:10.37,2013-01-19 09:58:00,
2013-01-19 05:03:00,14.5,-3.9,29.85,SSE,155,0.0,0.0,43,0.00,CLR,CLR,0.00,WeatherDisplay:10.37,2013-01-19 10:03:00,
2013-01-19 05:08:00,14.8,-3.7,29.85,SSE,156,0.0,0.0,43,0.00,CLR,CLR,0.00,WeatherDisplay:10.37,2013-01-19 10:08:00,
2013-01-19 05:18:00,15.3,-3.3,29.83,SSE,157,0.0,0.0,43,0.00,CLR,CLR,0.00,WeatherDisplay:10.37,2013-01-19 10:18:00,
2013-01-19 05:28:00,15.6,-2.9,29.83,ESE,117,0.0,0.0,43,0.00,CLR,CLR,0.00,WeatherDisplay:10.37,2013-01-19 10:28:00,
2013-01-19 05:38:00,16.0,-2.6,29.83,ESE,112,0.0,0.0,43,0.00,CLR,CLR,0.00,WeatherDisplay:10.37,2013-01-19 10:38:00,
2013-01-19 05:48:00,16.3,-2.3,29.83,ESE,107,0.0,3.0,43,0.00,CLR,CLR,0.00,WeatherDisplay:10.37,2013-01-19 10:48:00,
2013-01-19 05:58:00,16.9,-1.8,29.83,SSE,153,1.0,3.0,43,0.00,CLR,CLR,0.00,WeatherDisplay:10.37,2013-01-19 10:58:00,
2013-01-19 06:03:00,17.2,-1.5,29.83,SE,128,0.0,6.0,43,0.00,CLR,CLR,0.00,WeatherDisplay:10.37,2013-01-19 11:03:00,
2013-01-19 06:08:00,17.7,-1.1,29.83,SSE,158,5.0,6.0,43,0.00,CLR,CLR,0.00,WeatherDisplay:10.37,2013-01-19 11:08:00,
2013-01-19 07:48:00,18.7,2.2,29.80,ESE,111,0.0,0.0,48,0.00,CLR,CLR,0.00,WeatherDisplay:10.37,2013-01-19 12:48:00,
2013-01-19 07:53:00,18.7,2.2,29.80,ESE,111,0.0,0.0,48,0.00,CLR,CLR,0.00,WeatherDisplay:10.37,2013-01-19 12:53:00,
2013-01-19 07:58:00,18.7,2.7,29.80,ESE,111,0.0,0.0,49,0.00,CLR,CLR,0.00,WeatherDisplay:10.37,2013-01-19 12:58:00,
2013-01-19 08:03:00,18.7,2.7,29.80,ESE,111,0.0,0.0,49,0.00,CLR,CLR,0.00,WeatherDisplay:10.37,2013-01-19 13:03:00,
2013-01-19 08:08:00,18.9,2.8,29.80,ESE,111,0.0,0.0,49,0.00,CLR,CLR,0.00,WeatherDisplay:10.37,2013-01-19 13:08:00,
2013-01-19 08:18:00,19.2,3.2,29.80,ESE,111,0.0,0.0,49,0.00,CLR,CLR,0.00,WeatherDisplay:10.37,2013-01-19 13:18:00,
2013-01-19 08:28:00,19.6,3.9,29.80,SE,132,2.0,4.0,50,0.00,CLR,CLR,0.00,WeatherDisplay:10.37,2013-01-19 13:28:00,
2013-01-19 08:38:00,20.0,4.3,29.80,SE,143,1.0,6.0,50,0.00,CLR,CLR,0.00,WeatherDisplay:10.37,2013-01-19 13:38:00,
2013-01-19 08:43:00,20.3,5.0,29.80,SSE,151,5.0,6.0,51,0.00,CLR,CLR,0.00,WeatherDisplay:10.37,2013-01-19 13:43:00,
2013-01-19 08:48:00,20.7,5.0,29.77,SSE,159,1.0,6.0,50,0.00,CLR,CLR,0.00,WeatherDisplay:10.37,2013-01-19 13:48:00,
2013-01-19 08:58:00,21.4,5.6,29.77,SSE,160,3.0,5.0,50,0.00,CLR,CLR,0.00,WeatherDisplay:10.37,2013-01-19 13:58:00,
2013-01-19 09:03:00,21.6,5.8,29.77,SSE,153,2.0,5.0,50,0.00,CLR,CLR,0.00,WeatherDisplay:10.37,2013-01-19 14:03:00,
2013-01-19 09:08:00,21.9,6.1,29.77,SSE,161,3.0,8.0,50,0.00,CLR,CLR,0.00,WeatherDisplay:10.37,2013-01-19 14:08:00,
2013-01-19 09:18:00,22.3,6.0,29.77,SSE,165,5.0,8.0,49,0.00,CLR,CLR,0.00,WeatherDisplay:10.37,2013-01-19 14:18:00,
2013-01-19 09:28:00,22.8,5.6,29.77,South,170,3.0,6.0,47,0.00,CLR,CLR,0.00,WeatherDisplay:10.37,2013-01-19 14:28:00,
2013-01-19 09:38:00,23.3,5.6,29.77,SSE,167,3.0,6.0,46,0.00,CLR,CLR,0.00,WeatherDisplay:10.37,2013-01-19 14:38:00,
2013-01-19 09:48:00,23.5,5.3,29.77,South,175,3.0,8.0,45,0.00,CLR,CLR,0.00,WeatherDisplay:10.37,2013-01-19 14:48:00,
2013-01-19 09:58:00,23.9,4.6,29.77,SSE,162,5.0,6.0,43,0.00,CLR,CLR,0.00,WeatherDisplay:10.37,2013-01-19 14:58:00,
2013-01-19 10:03:00,24.1,4.8,29.77,SSE,150,1.0,7.0,43,0.00,CLR,CLR,0.00,WeatherDisplay:10.37,2013-01-19 15:03:00,
2013-01-19 10:08:00,24.3,4.4,29.77,SSE,151,5.0,8.0,42,0.00,CLR,CLR,0.00,WeatherDisplay:10.37,2013-01-19 15:08:00,
2013-01-19 10:18:00,24.4,4.6,29.77,SSE,159,0.0,6.0,42,0.00,CLR,CLR,0.00,WeatherDisplay:10.37,2013-01-19 15:18:00,
2013-01-19 10:28:00,24.9,5.0,29.77,SSE,164,5.0,8.0,42,0.00,CLR,CLR,0.00,WeatherDisplay:10.37,2013-01-19 15:28:00,
2013-01-19 10:38:00,25.5,5.6,29.74,South,170,5.0,8.0,42,0.00,CLR,CLR,0.00,WeatherDisplay:10.37,2013-01-19 15:38:00,
2013-01-19 10:48:00,25.9,5.4,29.74,SE,140,3.0,7.0,41,0.00,CLR,CLR,0.00,WeatherDisplay:10.37,2013-01-19 15:48:00,
2013-01-19 10:58:00,26.1,5.5,29.74,South,172,3.0,8.0,41,0.00,CLR,CLR,0.00,WeatherDisplay:10.37,2013-01-19 15:58:00,
2013-01-19 11:08:00,26.2,5.6,29.71,South,178,5.0,6.0,41,0.00,CLR,CLR,0.00,WeatherDisplay:10.37,2013-01-19 16:08:00,
2013-01-19 11:18:00,26.6,6.0,29.71,SSE,168,2.0,6.0,41,0.00,CLR,CLR,0.00,WeatherDisplay:10.37,2013-01-19 16:18:00,
2013-01-19 11:28:00,27.2,6.6,29.71,SSE,155,1.0,8.0,41,0.00,CLR,CLR,0.00,WeatherDisplay:10.37,2013-01-19 16:28:00,
2013-01-19 11:38:00,28.1,6.9,29.71,South,174,5.0,9.0,40,0.00,CLR,CLR,0.00,WeatherDisplay:10.37,2013-01-19 16:38:00,
2013-01-19 11:48:00,28.8,7.4,29.68,South,173,9.0,11.0,40,0.00,CLR,CLR,0.00,WeatherDisplay:10.37,2013-01-19 16:48:00,
2013-01-19 11:58:00,29.2,7.8,29.68,South,181,5.0,8.0,40,0.00,CLR,CLR,0.00,WeatherDisplay:10.37,2013-01-19 16:58:00,
2013-01-19 12:03:00,29.4,7.5,29.68,South,189,5.0,12.0,39,0.00,CLR,CLR,0.00,WeatherDisplay:10.37,2013-01-19 17:03:00,
2013-01-19 12:08:00,29.5,7.0,29.68,South,188,6.0,9.0,38,0.00,CLR,CLR,0.00,WeatherDisplay:10.37,2013-01-19 17:08:00,
2013-01-19 12:18:00,29.7,7.7,29.65,South,175,5.0,8.0,39,0.00,CLR,CLR,0.00,WeatherDisplay:10.37,2013-01-19 17:18:00,
2013-01-19 12:23:00,29.8,7.9,29.65,South,176,5.0,6.0,39,0.00,CLR,CLR,0.00,WeatherDisplay:10.37,2013-01-19 17:23:00,
2013-01-19 12:28:00,30.0,8.0,29.65,SSE,166,0.0,9.0,39,0.00,CLR,CLR,0.00,WeatherDisplay:10.37,2013-01-19 17:28:00,
2013-01-19 12:38:00,30.6,8.5,29.65,South,173,5.0,11.0,39,0.00,CLR,CLR,0.00,WeatherDisplay:10.37,2013-01-19 17:38:00,
2013-01-19 12:48:00,30.7,8.7,29.62,SSE,168,6.0,8.0,39,0.00,CLR,CLR,0.00,WeatherDisplay:10.37,2013-01-19 17:48:00,
2013-01-19 12:58:00,31.1,8.4,29.62,South,177,5.0,6.0,38,0.00,CLR,CLR,0.00,WeatherDisplay:10.37,2013-01-19 17:58:00,
2013-01-19 13:03:00,31.3,8.6,29.62,South,178,3.0,7.0,38,0.00,CLR,CLR,0.00,WeatherDisplay:10.37,2013-01-19 18:03:00,
2013-01-19 13:18:00,32.3,9.5,29.62,SSW,195,3.0,6.0,38,0.00,CLR,CLR,0.00,WeatherDisplay:10.37,2013-01-19 18:18:00,
2013-01-19 13:28:00,32.6,9.1,29.62,South,180,2.0,8.0,37,0.00,CLR,CLR,0.00,WeatherDisplay:10.37,2013-01-19 18:28:00,
2013-01-19 13:43:00,33.1,9.0,29.62,South,189,3.0,6.0,36,0.00,CLR,CLR,0.00,WeatherDisplay:10.37,2013-01-19 18:43:00,
2013-01-19 13:48:00,33.1,9.0,29.62,South,188,6.0,6.0,36,0.00,CLR,CLR,0.00,WeatherDisplay:10.37,2013-01-19 18:48:00,
2013-01-19 13:53:00,33.1,9.0,29.62,South,174,3.0,8.0,36,0.00,CLR,CLR,0.00,WeatherDisplay:10.37,2013-01-19 18:53:00,
2013-01-19 14:03:00,33.1,9.6,29.62,South,178,2.0,4.0,37,0.00,CLR,CLR,0.00,WeatherDisplay:10.37,2013-01-19 19:03:00,
2013-01-19 14:08:00,33.3,9.8,29.62,South,174,3.0,4.0,37,0.00,CLR,CLR,0.00,WeatherDisplay:10.37,2013-01-19 19:08:00,
2013-01-19 14:18:00,33.6,9.5,29.62,South,176,2.0,3.0,36,0.00,CLR,CLR,0.00,WeatherDisplay:10.37,2013-01-19 19:18:00,
2013-01-19 14:28:00,34.0,10.4,29.62,South,191,0.0,3.0,37,0.00,CLR,CLR,0.00,WeatherDisplay:10.37,2013-01-19 19:28:00,
2013-01-19 14:33:00,34.2,10.6,29.62,SSW,204,0.0,0.0,37,0.00,CLR,CLR,0.00,WeatherDisplay:10.37,2013-01-19 19:33:00,
2013-01-19 14:38:00,34.3,10.7,29.62,SSW,197,2.0,3.0,37,0.00,CLR,CLR,0.00,WeatherDisplay:10.37,2013-01-19 19:38:00,
2013-01-19 14:48:00,34.3,8.7,29.62,SW,229,3.0,6.0,34,0.00,CLR,CLR,0.00,WeatherDisplay:10.37,2013-01-19 19:48:00,
2013-01-19 14:53:00,34.3,9.5,29.62,SW,227,2.0,4.0,35,0.00,CLR,CLR,0.00,WeatherDisplay:10.37,2013-01-19 19:53:00,
2013-01-19 15:03:00,34.3,9.5,29.62,SSE,166,0.0,0.0,35,0.00,CLR,CLR,0.00,WeatherDisplay:10.37,2013-01-19 20:03:00,
2013-01-19 15:08:00,34.3,9.5,29.62,South,173,2.0,5.0,35,0.00,CLR,CLR,0.00,WeatherDisplay:10.37,2013-01-19 20:08:00,
2013-01-19 15:18:00,34.2,9.3,29.62,SSW,198,0.0,0.0,35,0.00,CLR,CLR,0.00,WeatherDisplay:10.37,2013-01-19 20:18:00,
2013-01-19 15:33:00,34.2,9.3,29.62,SSW,197,0.0,0.0,35,0.00,CLR,CLR,0.00,WeatherDisplay:10.37,2013-01-19 20:33:00,
2013-01-19 15:38:00,34.2,9.3,29.62,SSW,193,0.0,0.0,35,0.00,CLR,CLR,0.00,WeatherDisplay:10.37,2013-01-19 20:38:00,
2013-01-19 15:53:00,34.0,9.2,29.62,SSW,193,0.0,0.0,35,0.00,CLR,CLR,0.00,WeatherDisplay:10.37,2013-01-19 20:53:00,
2013-01-19 16:03:00,34.0,9.2,29.59,SSW,193,0.0,0.0,35,0.00,CLR,CLR,0.00,WeatherDisplay:10.37,2013-01-19 21:03:00,
2013-01-19 16:23:00,33.3,9.8,29.59,SSW,193,0.0,0.0,37,0.00,CLR,CLR,0.00,WeatherDisplay:10.37,2013-01-19 21:23:00,
2013-01-19 16:33:00,32.9,9.4,29.59,SSW,193,0.0,0.0,37,0.00,CLR,CLR,0.00,WeatherDisplay:10.37,2013-01-19 21:33:00,
2013-01-19 16:38:00,32.5,9.7,29.59,SSW,193,0.0,0.0,38,0.00,CLR,CLR,0.00,WeatherDisplay:10.37,2013-01-19 21:38:00,
2013-01-19 16:43:00,32.2,9.4,29.59,SSW,193,0.0,0.0,38,0.00,CLR,CLR,0.00,WeatherDisplay:10.37,2013-01-19 21:43:00,
2013-01-19 16:53:00,31.8,9.6,29.59,SSW,193,0.0,0.0,39,0.00,CLR,CLR,0.00,WeatherDisplay:10.37,2013-01-19 21:53:00,
2013-01-19 16:58:00,31.5,9.9,29.59,SSW,193,0.0,0.0,40,0.00,CLR,CLR,0.00,WeatherDisplay:10.37,2013-01-19 21:58:00,
2013-01-19 17:03:00,31.1,9.6,29.59,SSW,193,0.0,0.0,40,0.00,CLR,CLR,0.00,WeatherDisplay:10.37,2013-01-19 22:03:00,
2013-01-19 17:08:00,30.9,9.4,29.59,SSW,199,0.0,0.0,40,0.00,CLR,CLR,0.00,WeatherDisplay:10.37,2013-01-19 22:08:00,
2013-01-19 17:18:00,30.7,9.8,29.59,NW,324,0.0,0.0,41,0.00,CLR,CLR,0.00,WeatherDisplay:10.37,2013-01-19 22:18:00,
2013-01-19 17:23:00,30.6,9.6,29.59,NNW,332,0.0,0.0,41,0.00,CLR,CLR,0.00,WeatherDisplay:10.37,2013-01-19 22:23:00,
2013-01-19 17:28:00,30.6,9.6,29.59,NNW,332,0.0,0.0,41,0.00,CLR,CLR,0.00,WeatherDisplay:10.37,2013-01-19 22:28:00,
2013-01-19 17:43:00,29.8,9.5,29.59,NNW,332,0.0,0.0,42,0.00,CLR,CLR,0.00,WeatherDisplay:10.37,2013-01-19 22:43:00,
2013-01-19 17:48:00,29.6,9.3,29.62,NNW,332,0.0,0.0,42,0.00,CLR,CLR,0.00,WeatherDisplay:10.37,2013-01-19 22:48:00,
2013-01-19 17:58:00,29.1,8.8,29.62,NNW,332,0.0,0.0,42,0.00,CLR,CLR,0.00,WeatherDisplay:10.37,2013-01-19 22:58:00,
2013-01-19 18:03:00,28.8,8.6,29.62,NNW,332,0.0,0.0,42,0.00,CLR,CLR,0.00,WeatherDisplay:10.37,2013-01-19 23:03:00,
2013-01-19 18:13:00,28.4,8.2,29.62,NNW,332,0.0,0.0,42,0.00,CLR,CLR,0.00,WeatherDisplay:10.37,2013-01-19 23:13:00,
2013-01-19 18:18:00,28.0,8.4,29.62,NNW,332,0.0,0.0,43,0.00,CLR,CLR,0.00,WeatherDisplay:10.37,2013-01-19 23:18:00,
2013-01-19 18:23:00,27.7,8.1,29.62,NNW,332,0.0,0.0,43,0.00,CLR,CLR,0.00,WeatherDisplay:10.37,2013-01-19 23:23:00,
2013-01-19 18:33:00,27.4,8.4,29.62,NNW,332,0.0,0.0,44,0.00,CLR,CLR,0.00,WeatherDisplay:10.37,2013-01-19 23:33:00,
2013-01-19 18:38:00,27.1,8.1,29.62,NNW,332,0.0,0.0,44,0.00,CLR,CLR,0.00,WeatherDisplay:10.37,2013-01-19 23:38:00,
2013-01-19 18:48:00,27.0,7.9,29.62,NNW,332,0.0,0.0,44,0.00,CLR,CLR,0.00,WeatherDisplay:10.37,2013-01-19 23:48:00,
2013-01-19 19:03:00,26.6,8.1,29.59,NNW,332,0.0,0.0,45,0.00,CLR,CLR,0.00,WeatherDisplay:10.37,2013-01-20 00:03:00,
2013-01-19 19:13:00,26.6,8.1,29.59,NNW,332,0.0,0.0,45,0.00,CLR,CLR,0.00,WeatherDisplay:10.37,2013-01-20 00:13:00,
2013-01-19 19:18:00,26.4,8.4,29.62,NNW,332,0.0,0.0,46,0.00,CLR,CLR,0.00,WeatherDisplay:10.37,2013-01-20 00:18:00,
2013-01-19 19:28:00,26.2,8.2,29.62,NNW,332,0.0,0.0,46,0.00,CLR,CLR,0.00,WeatherDisplay:10.37,2013-01-20 00:28:00,
2013-01-19 19:38:00,26.2,8.7,29.62,NNW,332,0.0,0.0,47,0.00,CLR,CLR,0.00,WeatherDisplay:10.37,2013-01-20 00:38:00,
2013-01-19 19:48:00,26.1,8.6,29.59,NNW,332,0.0,0.0,47,0.00,CLR,CLR,0.00,WeatherDisplay:10.37,2013-01-20 00:48:00,
2013-01-19 19:58:00,26.1,9.1,29.59,NNW,332,0.0,0.0,48,0.00,CLR,CLR,0.00,WeatherDisplay:10.37,2013-01-20 00:58:00,
2013-01-19 20:03:00,26.2,9.2,29.59,NNW,332,0.0,0.0,48,0.00,CLR,CLR,0.00,WeatherDisplay:10.37,2013-01-20 01:03:00,
2013-01-19 20:08:00,26.2,9.6,29.59,NNW,332,0.0,0.0,49,0.00,CLR,CLR,0.00,WeatherDisplay:10.37,2013-01-20 01:08:00,
2013-01-19 20:14:00,26.2,10.1,29.59,NNW,332,0.0,0.0,50,0.00,CLR,CLR,0.00,WeatherDisplay:10.37,2013-01-20 01:14:00,
2013-01-19 20:19:00,26.4,10.3,29.59,NNW,332,0.0,0.0,50,0.00,CLR,CLR,0.00,WeatherDisplay:10.37,2013-01-20 01:19:00,
2013-01-19 20:29:00,26.6,10.9,29.59,NNW,332,0.0,0.0,51,0.00,CLR,CLR,0.00,WeatherDisplay:10.37,2013-01-20 01:29:00,
2013-01-19 20:39:00,26.6,10.9,29.59,NNW,332,0.0,0.0,51,0.00,CLR,CLR,0.00,WeatherDisplay:10.37,2013-01-20 01:39:00,
2013-01-19 20:49:00,26.8,11.0,29.59,NNW,332,0.0,0.0,51,0.00,CLR,CLR,0.00,WeatherDisplay:10.37,2013-01-20 01:49:00,
2013-01-19 20:59:00,26.8,11.5,29.59,NNW,332,0.0,0.0,52,0.00,CLR,CLR,0.00,WeatherDisplay:10.37,2013-01-20 01:59:00,
2013-01-19 21:04:00,27.0,11.7,29.59,NNW,332,0.0,0.0,52,0.00,CLR,CLR,0.00,WeatherDisplay:10.37,2013-01-20 02:04:00,
2013-01-19 21:09:00,27.0,11.7,29.59,NNW,332,0.0,0.0,52,0.00,CLR,CLR,0.00,WeatherDisplay:10.37,2013-01-20 02:09:00,
2013-01-19 21:23:00,27.1,12.3,29.59,NNW,332,0.0,0.0,53,0.00,CLR,CLR,0.00,WeatherDisplay:10.37,2013-01-20 02:23:00,
2013-01-19 21:29:00,27.1,12.3,29.59,NNW,332,0.0,0.0,53,0.00,CLR,CLR,0.00,WeatherDisplay:10.37,2013-01-20 02:29:00,
2013-01-19 21:38:00,27.3,12.4,29.59,NNW,332,0.0,0.0,53,0.00,CLR,CLR,0.00,WeatherDisplay:10.37,2013-01-20 02:38:00,
2013-01-19 21:48:00,27.5,12.6,29.59,NNW,332,0.0,0.0,53,0.00,CLR,CLR,0.00,WeatherDisplay:10.37,2013-01-20 02:48:00,
2013-01-19 21:58:00,27.7,13.2,29.59,NNW,332,0.0,0.0,54,0.00,CLR,CLR,0.00,WeatherDisplay:10.37,2013-01-20 02:58:00,
2013-01-19 22:08:00,27.7,13.2,29.56,NNW,332,0.0,0.0,54,0.00,CLR,CLR,0.00,WeatherDisplay:10.37,2013-01-20 03:08:00,
2013-01-19 22:18:00,27.9,13.3,29.56,NNW,332,0.0,0.0,54,0.00,CLR,CLR,0.00,WeatherDisplay:10.37,2013-01-20 03:18:00,
2013-01-19 22:28:00,27.9,13.3,29.56,NNW,332,0.0,0.0,54,0.00,CLR,CLR,0.00,WeatherDisplay:10.37,2013-01-20 03:28:00,
2013-01-19 22:43:00,27.9,13.3,29.56,NNW,332,0.0,0.0,54,0.00,CLR,CLR,0.00,WeatherDisplay:10.37,2013-01-20 03:43:00,
2013-01-19 22:48:00,27.9,13.3,29.56,NNW,332,0.0,0.0,54,0.00,CLR,CLR,0.00,WeatherDisplay:10.37,2013-01-20 03:48:00,
2013-01-19 22:58:00,27.9,13.3,29.56,NNW,332,0.0,0.0,54,0.00,CLR,CLR,0.00,WeatherDisplay:10.37,2013-01-20 03:58:00,
2013-01-19 23:03:00,27.9,13.3,29.53,NNW,332,0.0,0.0,54,0.00,CLR,CLR,0.00,WeatherDisplay:10.37,2013-01-20 04:03:00,
2013-01-19 23:08:00,27.9,13.3,29.53,NNW,332,0.0,0.0,54,0.00,CLR,CLR,0.00,WeatherDisplay:10.37,2013-01-20 04:08:00,
2013-01-19 23:23:00,27.9,13.3,29.53,NNW,332,0.0,0.0,54,0.00,CLR,CLR,0.00,WeatherDisplay:10.37,2013-01-20 04:23:00,
2013-01-19 23:28:00,27.9,13.3,29.53,NNW,332,0.0,0.0,54,0.00,CLR,CLR,0.00,WeatherDisplay:10.37,2013-01-20 04:28:00,
2013-01-19 23:38:00,27.9,13.3,29.53,NNW,332,0.0,0.0,54,0.00,CLR,CLR,0.00,WeatherDisplay:10.37,2013-01-20 04:38:00,
2013-01-19 23:43:00,27.9,13.3,29.53,NNW,332,0.0,0.0,54,0.00,CLR,CLR,0.00,WeatherDisplay:10.37,2013-01-20 04:43:00,
2013-01-19 23:48:00,27.9,13.3,29.50,NNW,332,0.0,0.0,54,0.00,CLR,CLR,0.00,WeatherDisplay:10.37,2013-01-20 04:48:00,